Time,TemperatureF,DewpointF,PressureIn,WindDirection,WindDirectionDegrees,WindSpeedMPH,WindSpeedGustMPH,Humidity,HourlyPrecipIn,Conditions,Clouds,dailyrainin,SoftwareType,DateUTC
2013-03-04 00:01:00,41.0,39.0,30.14,NNE,23,0.0,0.0,94,0.00,,,0.00,,2013-03-04 08:01:00,
2013-03-04 00:11:00,41.0,39.0,30.14,NNE,23,0.0,0.0,93,0.00,,,0.00,,2013-03-04 08:11:00,
2013-03-04 00:21:00,41.0,39.0,30.14,NNE,23,0.0,0.0,93,0.00,,,0.00,,2013-03-04 08:21:00,
2013-03-04 00:31:00,41.0,39.0,30.14,NNE,23,0.0,0.0,93,0.00,,,0.00,,2013-03-04 08:31:00,
2013-03-04 00:41:00,41.0,39.0,30.14,NNE,23,0.0,0.0,93,0.00,,,0.00,,2013-03-04 08:41:00,
2013-03-04 00:52:00,41.0,39.0,30.14,NNE,23,0.0,0.0,93,0.00,,,0.00,,2013-03-04 08:52:00,
2013-03-04 01:01:00,41.0,39.0,30.14,NNE,23,0.0,0.0,93,0.00,,,0.00,,2013-03-04 09:01:00,
2013-03-04 01:11:00,41.0,39.0,30.14,NNE,23,0.0,0.0,93,0.00,,,0.00,,2013-03-04 09:11:00,
2013-03-04 01:21:00,41.0,39.0,30.14,NNE,23,0.0,0.0,93,0.00,,,0.00,,2013-03-04 09:21:00,
2013-03-04 01:31:00,41.0,39.0,30.14,NNE,23,0.0,0.0,93,0.00,,,0.00,,2013-03-04 09:31:00,
2013-03-04 01:41:00,41.0,39.0,30.14,NNE,23,0.0,0.0,93,0.00,,,0.00,,2013-03-04 09:41:00,
2013-03-04 01:52:00,42.0,40.0,30.15,NNE,23,0.0,0.0,93,0.00,,,0.00,,2013-03-04 09:52:00,
2013-03-04 02:01:00,42.0,40.0,30.15,NNE,23,0.0,0.0,93,0.00,,,0.00,,2013-03-04 10:01:00,
2013-03-04 02:11:00,42.0,40.0,30.15,NNE,23,0.0,0.0,93,0.00,,,0.00,,2013-03-04 10:11:00,
2013-03-04 02:21:00,43.0,41.0,30.16,NNE,23,0.0,0.0,93,0.00,,,0.00,,2013-03-04 10:21:00,
2013-03-04 02:31:00,43.0,41.0,30.16,NNE,23,0.0,0.0,92,0.00,,,0.00,,2013-03-04 10:31:00,
2013-03-04 02:41:00,44.0,42.0,30.14,NNE,23,0.0,0.0,92,0.00,,,0.00,,2013-03-04 10:41:00,
2013-03-04 02:52:00,44.0,42.0,30.14,NNE,23,0.0,0.0,92,0.00,,,0.00,,2013-03-04 10:52:00,
2013-03-04 03:01:00,44.0,42.0,30.14,NNE,23,0.0,0.0,92,0.00,,,0.00,,2013-03-04 11:01:00,
2013-03-04 03:11:00,44.0,42.0,30.14,NNE,23,0.0,0.0,92,0.00,,,0.00,,2013-03-04 11:11:00,
2013-03-04 03:21:00,44.0,42.0,30.14,NNE,23,0.0,0.0,91,0.00,,,0.00,,2013-03-04 11:21:00,
2013-03-04 03:31:00,44.0,42.0,30.14,NNE,23,0.0,0.0,91,0.00,,,0.00,,2013-03-04 11:31:00,
2013-03-04 03:41:00,44.0,42.0,30.14,NNE,23,0.0,0.0,91,0.00,,,0.00,,2013-03-04 11:41:00,
2013-03-04 03:52:00,44.0,42.0,30.14,NNE,23,0.0,0.0,91,0.00,,,0.00,,2013-03-04 11:52:00,
2013-03-04 04:01:00,44.0,42.0,30.14,NNE,23,0.0,0.0,91,0.00,,,0.00,,2013-03-04 12:01:00,
2013-03-04 04:11:00,44.0,42.0,30.14,NNE,23,0.0,0.0,91,0.00,,,0.00,,2013-03-04 12:11:00,
2013-03-04 04:22:00,44.0,42.0,30.14,NNE,23,0.0,0.0,91,0.00,,,0.00,,2013-03-04 12:22:00,
2013-03-04 04:32:00,44.0,42.0,30.14,NNE,23,0.0,0.0,91,0.00,,,0.00,,2013-03-04 12:32:00,
2013-03-04 04:42:00,44.0,42.0,30.14,NNE,23,0.0,0.0,91,0.00,,,0.00,,2013-03-04 12:42:00,
2013-03-04 04:52:00,44.0,41.0,30.14,NNE,23,0.0,0.0,90,0.00,,,0.00,,2013-03-04 12:52:00,
2013-03-04 05:01:00,44.0,41.0,30.14,NNE,23,0.0,0.0,90,0.00,,,0.00,,2013-03-04 13:01:00,
2013-03-04 05:11:00,44.0,41.0,30.14,NNE,23,0.0,0.0,90,0.00,,,0.00,,2013-03-04 13:11:00,
2013-03-04 05:21:00,44.0,41.0,30.15,NNE,23,0.0,0.0,90,0.00,,,0.00,,2013-03-04 13:21:00,
2013-03-04 05:31:00,44.0,41.0,30.15,NNE,23,0.0,0.0,90,0.00,,,0.00,,2013-03-04 13:31:00,
2013-03-04 05:41:00,44.0,41.0,30.15,NNE,23,0.0,0.0,90,0.00,,,0.00,,2013-03-04 13:41:00,
2013-03-04 05:52:00,43.0,40.0,30.15,NNE,23,0.0,0.0,90,0.00,,,0.00,,2013-03-04 13:52:00,
2013-03-04 06:01:00,43.0,40.0,30.15,NNE,23,0.0,0.0,90,0.00,,,0.00,,2013-03-04 14:01:00,
2013-03-04 06:11:00,43.0,40.0,30.15,NNE,23,0.0,0.0,90,0.00,,,0.00,,2013-03-04 14:11:00,
2013-03-04 06:21:00,41.0,38.0,30.16,NNE,23,0.0,1.0,90,0.00,,,0.00,,2013-03-04 14:21:00,
2013-03-04 06:31:00,40.0,38.0,30.16,SW,232,1.0,3.0,91,0.00,,,0.00,,2013-03-04 14:31:00,
2013-03-04 06:41:00,40.0,38.0,30.16,SW,232,1.0,3.0,91,0.00,,,0.00,,2013-03-04 14:41:00,
2013-03-04 06:52:00,39.0,37.0,30.16,South,179,0.0,1.0,91,0.00,,,0.00,,2013-03-04 14:52:00,
2013-03-04 07:01:00,39.0,37.0,30.16,SSW,194,0.0,1.0,92,0.00,,,0.00,,2013-03-04 15:01:00,
2013-03-04 07:11:00,39.0,37.0,30.16,SSW,194,0.0,1.0,92,0.00,,,0.00,,2013-03-04 15:11:00,
2013-03-04 07:21:00,39.0,37.0,30.16,SSW,193,0.0,0.0,93,0.00,,,0.00,,2013-03-04 15:21:00,
2013-03-04 07:31:00,39.0,37.0,30.16,SSW,193,0.0,0.0,93,0.00,,,0.00,,2013-03-04 15:31:00,
2013-03-04 07:41:00,39.0,37.0,30.16,SSW,193,0.0,0.0,93,0.00,,,0.00,,2013-03-04 15:41:00,
2013-03-04 07:52:00,39.0,37.0,30.17,SSW,193,0.0,0.0,94,0.00,,,0.00,,2013-03-04 15:52:00,
2013-03-04 08:02:00,39.0,37.0,30.17,SSW,193,0.0,0.0,94,0.00,,,0.00,,2013-03-04 16:02:00,
2013-03-04 08:11:00,39.0,37.0,30.17,SSW,193,0.0,0.0,94,0.00,,,0.00,,2013-03-04 16:11:00,
2013-03-04 08:21:00,40.0,39.0,30.17,SSW,193,0.0,0.0,95,0.00,,,0.00,,2013-03-04 16:21:00,
2013-03-04 08:31:00,40.0,39.0,30.17,SSW,193,0.0,0.0,95,0.00,,,0.00,,2013-03-04 16:31:00,
2013-03-04 08:41:00,40.0,39.0,30.17,SSW,193,0.0,0.0,95,0.00,,,0.00,,2013-03-04 16:41:00,
2013-03-04 08:52:00,40.0,39.0,30.18,SSW,193,0.0,0.0,95,0.00,,,0.00,,2013-03-04 16:52:00,
2013-03-04 09:01:00,40.0,39.0,30.18,SSW,193,0.0,2.0,95,0.00,,,0.00,,2013-03-04 17:01:00,
2013-03-04 09:11:00,40.0,39.0,30.18,SSW,193,0.0,2.0,95,0.00,,,0.00,,2013-03-04 17:11:00,
2013-03-04 09:21:00,41.0,40.0,30.18,SSW,193,0.0,1.0,95,0.00,,,0.00,,2013-03-04 17:21:00,
2013-03-04 09:31:00,41.0,40.0,30.18,SSW,192,0.0,1.0,96,0.00,,,0.00,,2013-03-04 17:31:00,
2013-03-04 09:42:00,41.0,40.0,30.18,SSW,192,0.0,1.0,96,0.00,,,0.00,,2013-03-04 17:42:00,
2013-03-04 09:52:00,42.0,41.0,30.19,South,191,0.0,1.0,96,0.00,,,0.00,,2013-03-04 17:52:00,
2013-03-04 10:01:00,42.0,41.0,30.19,South,191,0.0,0.0,95,0.00,,,0.00,,2013-03-04 18:01:00,
2013-03-04 10:11:00,42.0,41.0,30.19,South,191,0.0,0.0,95,0.00,,,0.00,,2013-03-04 18:11:00,
2013-03-04 10:21:00,43.0,42.0,30.19,WNW,288,0.0,0.0,96,0.00,,,0.00,,2013-03-04 18:21:00,
2013-03-04 10:31:00,43.0,42.0,30.19,WNW,288,0.0,1.0,96,0.00,,,0.00,,2013-03-04 18:31:00,
2013-03-04 10:41:00,43.0,42.0,30.19,WNW,288,0.0,1.0,96,0.00,,,0.00,,2013-03-04 18:41:00,
2013-03-04 10:52:00,43.0,42.0,30.19,NW,314,0.0,2.0,95,0.00,,,0.00,,2013-03-04 18:52:00,
2013-03-04 11:01:00,44.0,43.0,30.19,NW,322,0.0,2.0,95,0.00,,,0.00,,2013-03-04 19:01:00,
2013-03-04 11:11:00,44.0,43.0,30.19,NW,322,0.0,2.0,95,0.00,,,0.00,,2013-03-04 19:11:00,
2013-03-04 11:21:00,45.0,44.0,30.19,NE,45,0.0,1.0,95,0.00,,,0.00,,2013-03-04 19:21:00,
2013-03-04 11:31:00,46.0,44.0,30.19,NE,44,0.0,1.0,94,0.00,,,0.00,,2013-03-04 19:31:00,
2013-03-04 11:41:00,46.0,44.0,30.19,NE,44,0.0,1.0,94,0.00,,,0.00,,2013-03-04 19:41:00,
2013-03-04 11:52:00,47.0,45.0,30.18,NE,39,0.0,2.0,93,0.00,,,0.00,,2013-03-04 19:52:00,
2013-03-04 12:01:00,50.0,45.0,30.18,SE,128,0.0,3.0,83,0.00,,,0.00,,2013-03-04 20:01:00,
2013-03-04 12:11:00,52.0,46.0,30.17,SE,128,0.0,6.0,79,0.00,,,0.00,,2013-03-04 20:11:00,
2013-03-04 12:21:00,52.0,46.0,30.17,SE,128,0.0,6.0,79,0.00,,,0.00,,2013-03-04 20:21:00,
2013-03-04 12:31:00,54.0,47.0,30.17,SSE,152,0.0,2.0,78,0.00,,,0.00,,2013-03-04 20:31:00,
2013-03-04 12:41:00,54.0,47.0,30.17,SSE,152,0.0,2.0,78,0.00,,,0.00,,2013-03-04 20:41:00,
2013-03-04 12:52:00,54.0,47.0,30.16,SSW,212,4.0,6.0,77,0.00,,,0.00,,2013-03-04 20:52:00,
2013-03-04 13:01:00,50.0,44.0,30.16,SSW,195,3.0,5.0,81,0.00,,,0.00,,2013-03-04 21:01:00,
2013-03-04 13:11:00,50.0,44.0,30.16,SSW,195,3.0,5.0,81,0.00,,,0.00,,2013-03-04 21:11:00,
2013-03-04 13:21:00,46.0,42.0,30.16,SSW,205,1.0,4.0,86,0.00,,,0.00,,2013-03-04 21:21:00,
2013-03-04 13:31:00,47.0,43.0,30.16,SW,219,0.0,4.0,87,0.00,,,0.00,,2013-03-04 21:31:00,
2013-03-04 13:41:00,47.0,43.0,30.16,SW,219,0.0,4.0,87,0.00,,,0.00,,2013-03-04 21:41:00,
2013-03-04 13:52:00,50.0,44.0,30.16,NNE,24,0.0,3.0,81,0.00,,,0.00,,2013-03-04 21:52:00,
2013-03-04 14:01:00,50.0,44.0,30.16,NNE,24,0.0,3.0,81,0.00,,,0.00,,2013-03-04 22:01:00,
2013-03-04 14:11:00,50.0,44.0,30.16,NNE,24,0.0,3.0,81,0.00,,,0.00,,2013-03-04 22:11:00,
2013-03-04 14:21:00,51.0,46.0,30.16,North,5,0.0,3.0,83,0.00,,,0.00,,2013-03-04 22:21:00,
2013-03-04 14:31:00,51.0,44.0,30.16,North,5,0.0,2.0,78,0.00,,,0.00,,2013-03-04 22:31:00,
2013-03-04 14:42:00,51.0,44.0,30.16,North,5,0.0,2.0,78,0.00,,,0.00,,2013-03-04 22:42:00,
2013-03-04 14:52:00,52.0,45.0,30.16,NE,45,0.0,3.0,77,0.00,,,0.00,,2013-03-04 22:52:00,
2013-03-04 15:01:00,52.0,45.0,30.16,SSW,193,3.0,6.0,76,0.00,,,0.00,,2013-03-04 23:01:00,
2013-03-04 15:11:00,52.0,45.0,30.16,SSW,193,3.0,6.0,76,0.00,,,0.00,,2013-03-04 23:11:00,
2013-03-04 15:21:00,49.0,42.0,30.16,SW,215,3.0,5.0,77,0.00,,,0.00,,2013-03-04 23:21:00,
2013-03-04 15:31:00,49.0,41.0,30.16,SW,215,3.0,5.0,75,0.00,,,0.00,,2013-03-04 23:31:00,
2013-03-04 15:41:00,49.0,41.0,30.16,SW,215,3.0,5.0,75,0.00,,,0.00,,2013-03-04 23:41:00,
2013-03-04 15:52:00,48.0,38.0,30.15,South,180,0.0,5.0,68,0.00,,,0.00,,2013-03-04 23:52:00,
2013-03-04 16:01:00,49.0,37.0,30.15,South,174,0.0,3.0,64,0.00,,,0.00,,2013-03-05 00:01:00,
2013-03-04 16:11:00,49.0,37.0,30.15,South,174,0.0,3.0,64,0.00,,,0.00,,2013-03-05 00:11:00,
2013-03-04 16:21:00,50.0,39.0,30.14,South,186,0.0,1.0,67,0.00,,,0.00,,2013-03-05 00:21:00,
2013-03-04 16:32:00,49.0,40.0,30.14,WSW,239,1.0,4.0,71,0.00,,,0.00,,2013-03-05 00:32:00,
2013-03-04 16:41:00,49.0,40.0,30.14,WSW,239,1.0,4.0,71,0.00,,,0.00,,2013-03-05 00:41:00,
2013-03-04 16:52:00,46.0,39.0,30.14,WSW,244,1.0,4.0,77,0.00,,,0.00,,2013-03-05 00:52:00,
2013-03-04 17:01:00,46.0,39.0,30.14,WSW,244,1.0,4.0,77,0.00,,,0.00,,2013-03-05 01:01:00,
2013-03-04 17:11:00,46.0,39.0,30.14,WSW,244,1.0,4.0,77,0.00,,,0.00,,2013-03-05 01:11:00,
2013-03-04 17:21:00,43.0,38.0,30.13,South,175,0.0,1.0,84,0.00,,,0.00,,2013-03-05 01:21:00,
2013-03-04 17:32:00,43.0,38.0,30.13,WSW,240,0.0,3.0,83,0.00,,,0.00,,2013-03-05 01:32:00,
2013-03-04 17:42:00,43.0,38.0,30.13,WSW,240,0.0,3.0,83,0.00,,,0.00,,2013-03-05 01:42:00,
2013-03-04 17:52:00,43.0,38.0,30.13,SW,236,0.0,0.0,84,0.00,,,0.00,,2013-03-05 01:52:00,
2013-03-04 18:01:00,42.0,37.0,30.13,SW,236,0.0,0.0,83,0.00,,,0.00,,2013-03-05 02:01:00,
2013-03-04 18:11:00,42.0,37.0,30.13,SW,236,0.0,0.0,83,0.00,,,0.00,,2013-03-05 02:11:00,
2013-03-04 18:21:00,42.0,37.0,30.13,SW,236,0.0,0.0,83,0.00,,,0.00,,2013-03-05 02:21:00,
2013-03-04 18:31:00,42.0,38.0,30.13,SW,236,0.0,0.0,84,0.00,,,0.00,,2013-03-05 02:31:00,
2013-03-04 18:41:00,42.0,38.0,30.13,SW,236,0.0,0.0,84,0.00,,,0.00,,2013-03-05 02:41:00,
2013-03-04 18:52:00,41.0,37.0,30.13,SW,236,0.0,0.0,85,0.00,,,0.00,,2013-03-05 02:52:00,
2013-03-04 19:01:00,40.0,36.0,30.13,SW,236,0.0,0.0,86,0.00,,,0.00,,2013-03-05 03:01:00,
2013-03-04 19:11:00,40.0,36.0,30.13,SW,236,0.0,0.0,86,0.00,,,0.00,,2013-03-05 03:11:00,
2013-03-04 19:21:00,40.0,36.0,30.12,SW,236,0.0,0.0,87,0.00,,,0.00,,2013-03-05 03:21:00,
2013-03-04 19:31:00,39.0,35.0,30.12,SW,236,0.0,0.0,87,0.00,,,0.00,,2013-03-05 03:31:00,
2013-03-04 19:41:00,39.0,35.0,30.12,SW,236,0.0,0.0,87,0.00,,,0.00,,2013-03-05 03:41:00,
2013-03-04 19:52:00,38.0,35.0,30.12,SW,236,0.0,0.0,88,0.00,,,0.00,,2013-03-05 03:52:00,
2013-03-04 20:01:00,38.0,35.0,30.12,SW,236,0.0,0.0,89,0.00,,,0.00,,2013-03-05 04:01:00,
2013-03-04 20:11:00,38.0,35.0,30.12,SW,236,0.0,0.0,89,0.00,,,0.00,,2013-03-05 04:11:00,
2013-03-04 20:21:00,38.0,35.0,30.12,SW,236,0.0,0.0,90,0.00,,,0.00,,2013-03-05 04:21:00,
2013-03-04 20:31:00,38.0,36.0,30.12,SW,236,0.0,0.0,91,0.00,,,0.00,,2013-03-05 04:31:00,
2013-03-04 20:41:00,38.0,36.0,30.12,SW,236,0.0,0.0,91,0.00,,,0.00,,2013-03-05 04:41:00,
2013-03-04 20:52:00,38.0,36.0,30.13,SW,236,0.0,0.0,91,0.00,,,0.00,,2013-03-05 04:52:00,
2013-03-04 21:01:00,38.0,36.0,30.13,SW,236,0.0,0.0,91,0.00,,,0.00,,2013-03-05 05:01:00,
2013-03-04 21:11:00,38.0,36.0,30.13,SW,236,0.0,0.0,91,0.00,,,0.00,,2013-03-05 05:11:00,
2013-03-04 21:22:00,37.0,35.0,30.12,SW,236,0.0,0.0,91,0.00,,,0.00,,2013-03-05 05:22:00,
2013-03-04 21:31:00,37.0,35.0,30.12,SW,236,0.0,0.0,91,0.00,,,0.00,,2013-03-05 05:31:00,
2013-03-04 21:41:00,37.0,35.0,30.12,SW,236,0.0,0.0,91,0.00,,,0.00,,2013-03-05 05:41:00,
2013-03-04 21:52:00,37.0,35.0,30.12,SW,236,0.0,0.0,92,0.00,,,0.00,,2013-03-05 05:52:00,
2013-03-04 22:01:00,37.0,35.0,30.12,SW,236,0.0,0.0,93,0.00,,,0.00,,2013-03-05 06:01:00,
2013-03-04 22:11:00,37.0,35.0,30.12,SW,236,0.0,0.0,93,0.00,,,0.00,,2013-03-05 06:11:00,
2013-03-04 22:21:00,37.0,35.0,30.11,SW,236,0.0,0.0,93,0.00,,,0.00,,2013-03-05 06:21:00,
2013-03-04 22:31:00,36.0,34.0,30.11,SW,236,0.0,0.0,91,0.00,,,0.00,,2013-03-05 06:31:00,
2013-03-04 22:41:00,36.0,34.0,30.11,SW,236,0.0,0.0,91,0.00,,,0.00,,2013-03-05 06:41:00,
2013-03-04 22:52:00,36.0,33.0,30.11,SW,236,0.0,0.0,87,0.00,,,0.00,,2013-03-05 06:52:00,
2013-03-04 23:01:00,36.0,33.0,30.11,SW,236,0.0,0.0,87,0.00,,,0.00,,2013-03-05 07:01:00,
2013-03-04 23:11:00,36.0,33.0,30.11,SW,236,0.0,0.0,87,0.00,,,0.00,,2013-03-05 07:11:00,
2013-03-04 23:21:00,36.0,23.0,30.10,SW,236,0.0,0.0,58,0.00,,,0.00,,2013-03-05 07:21:00,
2013-03-04 23:32:00,36.0,6.0,30.10,ESE,113,0.0,2.0,28,0.00,,,0.00,,2013-03-05 07:32:00,
2013-03-04 23:52:00,37.0,13.0,30.10,ESE,113,0.0,0.0,37,0.00,,,0.00,,2013-03-05 07:52:00,